Вернуться в каталог

STARLINK-31579

АктивенСвязьVLEO
NORAD 59267·PAYLOAD·🇺🇸 United States

Запущен Mar 19, 2024 с Vandenberg Space Force Base

Loading…

Ближайшие Пролёты (ближайшие 24 часа)

TLE

СвежийSource: CelesTrak SupGP

Эпоха: Sep 14, 2026, 20:42 UTC

1 59267C 24050P   26257.86298611  .00033240  00000+0  98257-3 0  2575
2 59267  53.1610  21.7707 0000996  69.4705 137.3099 15.34359281    10

Отслеживайте STARLINK-31579 в реальном времени с AllMySat

Download on the App Store